TimeCDT,TemperatureF,Dew PointF,Humidity,Sea Level PressureIn,VisibilityMPH,Wind Direction,Wind SpeedMPH,Gust SpeedMPH,PrecipitationIn,Events,Conditions,WindDirDegrees,DateUTC
12:53 AM,50.0,37.9,63,29.90,10.0,SSW,9.2,-,N/A,,Clear,210,2013-10-20 05:53:00
1:53 AM,48.9,37.9,66,29.89,10.0,SSW,8.1,-,N/A,,Clear,200,2013-10-20 06:53:00
2:53 AM,48.0,37.9,68,29.88,10.0,SSW,10.4,-,N/A,,Clear,210,2013-10-20 07:53:00
3:53 AM,46.9,37.9,71,29.86,10.0,SSW,9.2,-,N/A,,Clear,210,2013-10-20 08:53:00
4:53 AM,46.9,37.9,71,29.86,10.0,SW,12.7,-,N/A,,Clear,220,2013-10-20 09:53:00
5:53 AM,46.0,37.0,71,29.85,10.0,SW,11.5,-,N/A,,Clear,220,2013-10-20 10:53:00
6:53 AM,46.0,37.0,71,29.86,10.0,SSW,10.4,-,N/A,,Clear,210,2013-10-20 11:53:00
7:53 AM,46.0,37.0,71,29.86,10.0,SSW,10.4,-,N/A,,Clear,210,2013-10-20 12:53:00
8:53 AM,48.9,37.9,66,29.87,10.0,SW,12.7,20.7,N/A,,Clear,220,2013-10-20 13:53:00
9:53 AM,54.0,37.9,55,29.87,10.0,SW,15.0,-,N/A,,Clear,220,2013-10-20 14:53:00
10:53 AM,57.9,37.9,47,29.87,10.0,SW,15.0,-,N/A,,Clear,220,2013-10-20 15:53:00
11:53 AM,63.0,39.0,41,29.86,10.0,SW,17.3,21.9,N/A,,Clear,230,2013-10-20 16:53:00
12:53 PM,66.0,39.0,37,29.84,10.0,SSW,13.8,23.0,N/A,,Clear,200,2013-10-20 17:53:00
1:53 PM,69.1,39.0,33,29.82,10.0,SSW,12.7,23.0,N/A,,Clear,210,2013-10-20 18:53:00
2:53 PM,69.1,36.0,30,29.81,10.0,SW,19.6,25.3,N/A,,Clear,230,2013-10-20 19:53:00
3:53 PM,69.1,37.0,31,29.80,10.0,SW,15.0,26.5,N/A,,Clear,230,2013-10-20 20:53:00
4:53 PM,68.0,39.9,36,29.81,10.0,SW,15.0,21.9,N/A,,Clear,230,2013-10-20 21:53:00
5:53 PM,66.0,41.0,40,29.82,10.0,SSW,11.5,-,N/A,,Clear,210,2013-10-20 22:53:00
6:53 PM,62.1,41.0,46,29.84,10.0,SSW,5.8,-,N/A,,Clear,200,2013-10-20 23:53:00
7:53 PM,60.1,42.1,51,29.87,10.0,West,5.8,-,N/A,,Clear,260,2013-10-21 00:53:00
8:53 PM,55.9,43.0,62,29.89,10.0,WNW,4.6,-,N/A,,Partly Cloudy,290,2013-10-21 01:53:00
9:53 PM,57.0,43.0,59,29.91,10.0,Calm,Calm,-,N/A,,Clear,0,2013-10-21 02:53:00
10:53 PM,55.9,42.1,60,29.93,10.0,Calm,Calm,-,N/A,,Overcast,0,2013-10-21 03:53:00
11:53 PM,54.0,43.0,66,29.93,10.0,NW,3.5,-,N/A,,Overcast,310,2013-10-21 04:53:00